When you browse on this site, cookies collect data to enhance your experience and personalize the content and advertising you see.
Visit our Privacy Policy to learn more. By continuing to use the site, you agree to this use of cookies and data.
  • In United Kingdom
  • List of Countries
  • For 7 days
  • Water Temperature
  • Weather Map
  • Weather Widgets
  • user-avatar
    Login

    Hourly Weather Dubnik

    Today, 8 December, Sunday

    Time Temperature Precipitation Wind Pressure Humidity
    00:00 +3°C° 0.2 mm 6 mps 741 mmHg 91%
    01:00 +2°C° 0.2 mm 6 mps 742 mmHg 92%
    02:00 +2°C° 0 mm 5 mps 742 mmHg 93%
    03:00 +2°C° 0.5 mm 5 mps 742 mmHg 93%
    04:00 +3°C° 0.5 mm 5 mps 742 mmHg 92%
    05:00 +3°C° 0.5 mm 5 mps 742 mmHg 92%
    06:00 +3°C° 0.2 mm 5 mps 742 mmHg 91%
    07:00 +3°C° 0.2 mm 5 mps 743 mmHg 90%
    08:00 +3°C° 0.2 mm 5 mps 743 mmHg 89%
    09:00 +3°C° 0 mm 5 mps 743 mmHg 88%
    10:00 +3°C° 0 mm 6 mps 743 mmHg 86%
    11:00 +3°C° 0 mm 6 mps 743 mmHg 84%
    12:00 +4°C° 0 mm 6 mps 743 mmHg 81%
    13:00 +4°C° 0 mm 6 mps 742 mmHg 79%
    14:00 +4°C° 0 mm 6 mps 742 mmHg 76%
    15:00 +4°C° 0 mm 6 mps 741 mmHg 77%
    16:00 +3°C° 0 mm 7 mps 741 mmHg 78%
    17:00 +2°C° 0 mm 7 mps 740 mmHg 78%
    18:00 +2°C° 0 mm 7 mps 740 mmHg 78%
    19:00 +2°C° 0 mm 7 mps 740 mmHg 78%
    20:00 +2°C° 0 mm 7 mps 740 mmHg 77%
    21:00 +2°C° 0 mm 7 mps 739 mmHg 77%
    22:00 +3°C° 0 mm 7 mps 739 mmHg 77%
    23:00 +3°C° 0 mm 7 mps 738 mmHg 77%

    Tomorrow, 9 December, Monday

    Time Temperature Precipitation Wind Pressure Humidity
    00:00 +3°C° 0 mm 7 mps 738 mmHg 77%
    01:00 +3°C° 0 mm 7 mps 738 mmHg 77%
    02:00 +3°C° 0 mm 7 mps 738 mmHg 78%
    03:00 +3°C° 0.1 mm 7 mps 738 mmHg 78%
    04:00 +3°C° 0.1 mm 6 mps 738 mmHg 79%
    05:00 +4°C° 0.1 mm 6 mps 737 mmHg 80%
    06:00 +4°C° 0 mm 6 mps 737 mmHg 79%
    07:00 +4°C° 0 mm 6 mps 737 mmHg 78%
    08:00 +4°C° 0 mm 6 mps 737 mmHg 77%
    09:00 +4°C° 0 mm 6 mps 738 mmHg 76%
    10:00 +5°C° 0 mm 6 mps 738 mmHg 75%
    11:00 +5°C° 0 mm 6 mps 738 mmHg 73%
    12:00 +5°C° 0 mm 6 mps 738 mmHg 73%
    13:00 +6°C° 0 mm 5 mps 738 mmHg 73%
    14:00 +7°C° 0 mm 5 mps 738 mmHg 73%
    15:00 +6°C° 0 mm 5 mps 738 mmHg 77%
    16:00 +6°C° 0 mm 4 mps 738 mmHg 81%
    17:00 +5°C° 0 mm 4 mps 738 mmHg 84%
    18:00 +5°C° 0 mm 4 mps 738 mmHg 85%
    19:00 +4°C° 0 mm 4 mps 738 mmHg 86%
    20:00 +4°C° 0 mm 4 mps 739 mmHg 87%
    21:00 +3°C° 0 mm 4 mps 739 mmHg 88%
    22:00 +3°C° 0 mm 3 mps 739 mmHg 89%
    23:00 +3°C° 0 mm 3 mps 739 mmHg 90%

    Day after tomorrow, 10 December, Tuesday

    Time Temperature Precipitation Wind Pressure Humidity
    00:00 +3°C° 0 mm 3 mps 740 mmHg 91%
    01:00 +3°C° 0 mm 3 mps 740 mmHg 91%
    02:00 +2°C° 0 mm 3 mps 740 mmHg 91%
    03:00 +2°C° 0 mm 3 mps 740 mmHg 90%
    04:00 +2°C° 0 mm 3 mps 740 mmHg 89%
    05:00 +1°C° 0 mm 4 mps 741 mmHg 89%
    06:00 +1°C° 0 mm 4 mps 741 mmHg 89%
    07:00 +1°C° 0 mm 4 mps 742 mmHg 89%
    08:00 0°C° 0 mm 4 mps 742 mmHg 89%
    09:00 +1°C° 0 mm 4 mps 743 mmHg 87%
    10:00 +3°C° 0 mm 4 mps 744 mmHg 84%
    11:00 +3°C° 0 mm 5 mps 744 mmHg 81%
    12:00 +4°C° 0 mm 4 mps 745 mmHg 80%
    13:00 +4°C° 0 mm 4 mps 745 mmHg 80%
    14:00 +4°C° 0 mm 4 mps 746 mmHg 79%
    15:00 +3°C° 0 mm 4 mps 746 mmHg 78%
    16:00 +3°C° 0 mm 3 mps 746 mmHg 76%
    17:00 +2°C° 0 mm 3 mps 746 mmHg 75%
    18:00 +2°C° 0 mm 3 mps 747 mmHg 74%
    19:00 +3°C° 0 mm 2 mps 748 mmHg 73%
    20:00 +3°C° 0 mm 2 mps 748 mmHg 73%
    21:00 +3°C° 0 mm 2 mps 748 mmHg 76%
    22:00 +3°C° 0 mm 2 mps 749 mmHg 79%
    23:00 +3°C° 0 mm 2 mps 749 mmHg 81%

    11 December, Wednesday

    Time Temperature Precipitation Wind Pressure Humidity
    00:00 +3°C° 0 mm 1 mps 749 mmHg 85%
    01:00 +3°C° 0 mm 1 mps 749 mmHg 89%
    02:00 +3°C° 0 mm 1 mps 750 mmHg 93%
    03:00 +3°C° 0 mm 1 mps 750 mmHg 92%
    04:00 +3°C° 0 mm 1 mps 750 mmHg 92%
    05:00 +3°C° 0 mm 1 mps 750 mmHg 91%
    06:00 +3°C° 0 mm 1 mps 750 mmHg 91%
    07:00 +3°C° 0 mm 1 mps 750 mmHg 90%
    08:00 +2°C° 0 mm 2 mps 750 mmHg 90%
    09:00 +2°C° 0 mm 2 mps 750 mmHg 88%
    10:00 +2°C° 0 mm 2 mps 750 mmHg 87%
    11:00 +2°C° 0 mm 3 mps 751 mmHg 86%
    12:00 +2°C° 0 mm 3 mps 750 mmHg 82%
    13:00 +2°C° 0 mm 3 mps 750 mmHg 79%
    14:00 +3°C° 0 mm 3 mps 749 mmHg 76%
    15:00 +2°C° 0 mm 3 mps 749 mmHg 77%
    16:00 +2°C° 0 mm 3 mps 749 mmHg 79%
    17:00 +1°C° 0 mm 3 mps 748 mmHg 80%
    18:00 +1°C° 0 mm 3 mps 748 mmHg 82%
    19:00 0°C° 0 mm 3 mps 748 mmHg 84%
    20:00 0°C° 0 mm 3 mps 748 mmHg 86%
    21:00 -1°C° 0 mm 4 mps 747 mmHg 86%
    22:00 -1°C° 0 mm 4 mps 747 mmHg 87%
    23:00 -1°C° 0 mm 4 mps 747 mmHg 88%

    12 December, Thursday

    Time Temperature Precipitation Wind Pressure Humidity
    00:00 -1°C° 0 mm 4 mps 746 mmHg 89%
    01:00 -1°C° 0 mm 4 mps 746 mmHg 90%
    02:00 -1°C° 0 mm 4 mps 746 mmHg 91%
    03:00 -1°C° 0 mm 4 mps 745 mmHg 92%
    04:00 -1°C° 0 mm 4 mps 745 mmHg 92%
    05:00 -1°C° 0 mm 4 mps 744 mmHg 92%
    06:00 -1°C° 0 mm 4 mps 744 mmHg 92%
    07:00 -1°C° 0 mm 4 mps 744 mmHg 92%
    08:00 -1°C° 0 mm 4 mps 744 mmHg 92%
    09:00 0°C° 0 mm 4 mps 744 mmHg 88%
    10:00 +1°C° 0 mm 5 mps 744 mmHg 84%
    11:00 +1°C° 0 mm 5 mps 744 mmHg 81%
    12:00 +3°C° 0 mm 4 mps 744 mmHg 80%
    13:00 +3°C° 0 mm 4 mps 744 mmHg 79%
    14:00 +3°C° 0 mm 3 mps 744 mmHg 78%
    15:00 +2°C° 0 mm 3 mps 744 mmHg 79%
    16:00 +2°C° 0 mm 3 mps 744 mmHg 81%
    17:00 +1°C° 0 mm 3 mps 743 mmHg 83%
    18:00 +1°C° 0 mm 3 mps 744 mmHg 83%
    19:00 +2°C° 0 mm 2 mps 744 mmHg 84%
    20:00 +2°C° 0 mm 2 mps 744 mmHg 84%
    21:00 +2°C° 0 mm 2 mps 744 mmHg 86%
    22:00 +1°C° 0 mm 2 mps 744 mmHg 88%
    23:00 +1°C° 0 mm 2 mps 744 mmHg 89%

    13 December, Friday

    Time Temperature Precipitation Wind Pressure Humidity
    00:00 +1°C° 0 mm 2 mps 743 mmHg 90%
    01:00 +1°C° 0 mm 2 mps 743 mmHg 91%
    02:00 -1°C° 0 mm 2 mps 743 mmHg 92%
    03:00 -1°C° 0 mm 2 mps 742 mmHg 92%
    04:00 -1°C° 0 mm 3 mps 742 mmHg 92%
    05:00 -1°C° 0 mm 3 mps 741 mmHg 92%
    06:00 -1°C° 0 mm 3 mps 740 mmHg 92%
    07:00 -2°C° 0 mm 4 mps 740 mmHg 92%
    08:00 -2°C° 0 mm 4 mps 739 mmHg 91%
    09:00 -1°C° 0 mm 5 mps 739 mmHg 87%
    10:00 +1°C° 0 mm 6 mps 738 mmHg 83%
    11:00 +2°C° 0 mm 7 mps 737 mmHg 79%
    12:00 +2°C° 0 mm 7 mps 736 mmHg 76%
    13:00 +3°C° 0 mm 7 mps 735 mmHg 72%
    14:00 +3°C° 0 mm 7 mps 734 mmHg 69%
    15:00 +2°C° 0 mm 7 mps 734 mmHg 70%
    16:00 +2°C° 0 mm 7 mps 733 mmHg 70%
    17:00 +2°C° 0 mm 7 mps 732 mmHg 71%
    18:00 0°C° 0 mm 7 mps 732 mmHg 73%
    19:00 0°C° 0 mm 7 mps 732 mmHg 75%
    20:00 0°C° 0 mm 7 mps 732 mmHg 78%
    21:00 -1°C° 0.6 mm 7 mps 732 mmHg 84%
    22:00 -1°C° 0.6 mm 6 mps 732 mmHg 90%
    23:00 -1°C° 0.6 mm 6 mps 732 mmHg 96%
    Show more